[[{"header":{"parameterUnit":"m.s-1","parameterCategory":1,"la1":30.2991,"la2":30.254,"lo1":-89.0895,"lo2":-89.0444,"dy":0.0017,"dx":0.0017,"nx":28,"ny":28,"refTime":"2023-11-10T09:00:00:Z","depth":0,"parameterNumber":2,"parameterNumberName":"U-component_of_WINDS"},"data":[0,0,0,0,0,0,0,0,0,0,0,0,0,0,0,0,0,0,0,0,0,0,0,0,0,0,0,0,0,0,0,0,0,0,0,0,0,0,0,0,0,0,0,0,0,0,0,0,0,0,0,0,0,0,0,0,0,0,-1.2832,-1.2835,0,-1.3098,-1.3101,-1.3104,-1.3199,-1.3198,-1.3197,-1.3196,-1.3484,-1.3493,-1.3501,0,0,0,0,0,0,0,0,0,0,0,0,0,-1.2424,-1.2431,-1.2831,-1.2835,-1.2838,-1.3097,-1.3101,-1.3105,-1.3199,-1.3198,-1.3196,-1.3195,-1.3482,-1.3492,-1.3502,0,0,0,0,0,0,0,0,0,0,0,0,0,-1.2637,-1.2433,-1.2831,-1.2916,-1.2926,-1.3097,-1.3101,-1.3106,-1.3199,-1.3198,-1.3196,-1.3195,-1.3478,-1.3491,-1.3504,-1.3614,0,0,-1.3543,-1.3549,0,0,0,0,0,0,0,0,-1.2624,-1.2652,-1.29,-1.291,-1.2922,-1.3113,-1.3063,-1.3277,-1.3199,-1.3096,-1.3196,-1.3194,-1.3363,-1.3385,-1.3439,-1.3627,-1.364,-1.3544,-1.3552,-1.3558,-1.3561,0,0,0,0,0,0,0,-1.261,-1.2641,-1.2937,-1.2904,-1.2917,-1.2947,-1.2976,-1.3104,-1.3236,-1.3105,-1.3112,-1.3142,-1.3369,-1.3427,-1.3447,-1.3644,-1.3544,-1.3555,-1.3563,-1.3568,-1.3945,-1.3947,0,0,0,0,0,0,-1.2578,-1.2628,-1.2929,-1.2945,-1.2766,-1.2956,-1.2988,-1.3054,-1.3234,-1.326,-1.3143,-1.3145,-1.3405,-1.3432,-1.3457,-1.3603,-1.3558,-1.357,-1.3577,-1.3943,-1.3945,-1.3948,0,0,0,0,0,0,-1.2569,-1.2604,-1.2918,-1.2789,-1.2831,-1.2964,-1.3038,-1.306,-1.3117,-1.3262,-1.3288,-1.3176,-1.3405,-1.3439,-1.3575,-1.3614,-1.3576,-1.3587,-1.394,-1.3943,-1.3946,-1.3892,0,0,0,0,0,0,-1.2557,-1.26,-1.2638,-1.2789,-1.2837,-1.3025,-1.304,-1.3066,-1.3137,-1.3143,-1.3301,-1.3325,-1.3406,-1.3555,-1.3588,-1.3631,-1.3597,-1.3937,-1.3941,-1.3945,-1.3891,-1.3893,-1.3894,0,0,0,0,0,-1.2542,-1.2614,-1.264,-1.2676,-1.2887,-1.3027,-1.3055,-1.3142,-1.314,-1.3183,-1.3278,-1.332,-1.3604,-1.3568,-1.3606,-1.3654,-1.3935,-1.394,-1.3945,-1.389,-1.3892,-1.3894,0,0,0,0,0,0,-1.2469,-1.2635,-1.2665,-1.2787,-1.2892,-1.3042,-1.3099,-1.3141,-1.3253,-1.3254,-1.3363,-1.3398,-1.3526,-1.3604,-1.3561,-1.3774,-1.3773,-1.3786,-1.3718,-1.3722,-1.3724,-1.3703,-1.3608,0,0,0,0,0,-1.2467,-1.256,-1.2703,-1.2797,-1.2848,-1.2964,-1.3028,-1.3086,-1.3201,-1.3247,-1.3352,-1.3466,-1.3583,-1.3656,-1.377,-1.3902,-1.3943,-1.3955,-1.3957,-1.3958,-1.3968,-1.4051,-1.406,-1.3964,-1.3964,-1.3964,0,0,-1.2464,-1.2566,-1.262,-1.2785,-1.2873,-1.2975,-1.3001,-1.3105,-1.3184,-1.3265,-1.3399,-1.348,-1.3617,-1.3752,-1.3817,-1.3821,-1.4004,-1.3964,-1.3964,-1.3974,-1.4057,-1.4066,-1.4074,-1.3968,-1.3967,-1.3966,0,0,-1.2511,-1.2595,-1.2685,-1.2772,-1.2903,-1.2981,-1.3003,-1.3148,-1.3204,-1.3339,-1.3404,-1.3503,-1.3697,-1.3793,-1.3868,-1.3957,-1.4003,-1.3991,-1.4002,-1.4082,-1.4089,-1.4097,-1.4134,-1.4145,-1.4001,-1.4001,-1.4001,0,-1.2492,-1.264,-1.2727,-1.2829,-1.2903,-1.2978,-1.3074,-1.3157,-1.3321,-1.3374,-1.3374,-1.3624,-1.3721,-1.3883,-1.3905,-1.3961,-1.3995,-1.3974,-1.408,-1.4088,-1.4097,-1.4133,-1.4146,-1.3999,-1.3999,-1.3999,-1.4,0,-1.2614,-1.2717,-1.2775,-1.2927,-1.3008,-1.3107,-1.3215,-1.3288,-1.3341,-1.3421,-1.3563,-1.3681,-1.3823,-1.3866,-1.392,-1.4039,-1.4037,-1.4057,-1.4059,-1.4102,-1.4139,-1.4153,-1.3996,-1.3997,-1.3997,-1.3998,0,0,-1.262,-1.282,-1.2841,-1.2913,-1.3066,-1.3151,-1.3257,-1.3391,-1.3455,-1.3567,-1.3663,-1.3829,-1.385,-1.3935,-1.4001,-1.407,-1.414,-1.4083,-1.4088,-1.4093,-1.4286,-1.4271,-1.4285,-1.4171,-1.4174,-1.4176,-1.4276,0,-1.2689,-1.2874,-1.2958,-1.3109,-1.3209,-1.3284,-1.3378,-1.3486,-1.3565,-1.3668,-1.3758,-1.3875,-1.3891,-1.3944,-1.4015,-1.4115,-1.418,-1.4109,-1.4269,-1.4273,-1.4233,-1.4303,-1.4287,-1.4375,-1.429,-1.4292,-1.4294,0,-1.2793,-1.2902,-1.3061,-1.3207,-1.3253,-1.3334,-1.3467,-1.3562,-1.3689,-1.3743,-1.3839,-1.3903,-1.4026,-1.4017,-1.4192,-1.4142,-1.4213,-1.4273,-1.4279,-1.4299,-1.4287,-1.4329,-1.4405,-1.4419,-1.4317,-1.4315,-1.4313,0,-1.2787,-1.2974,-1.3095,-1.3154,-1.3325,-1.3382,-1.3458,-1.3583,-1.366,-1.378,-1.3833,-1.3966,-1.404,-1.4146,-1.4248,-1.4231,-1.4415,-1.4414,-1.4469,-1.4467,-1.4506,-1.4502,-1.4597,-1.4546,-1.4546,-1.4546,-1.4545,0,-1.2856,-1.2952,-1.3094,-1.3168,-1.3281,-1.338,-1.3491,-1.3573,-1.3685,-1.3783,-1.3858,-1.395,-1.4077,-1.4187,-1.4269,-1.4405,-1.4437,-1.4489,-1.451,-1.4484,-1.4478,-1.4533,-1.4531,-1.4549,-1.4548,-1.4548,-1.4547,0,-1.2867,-1.2965,-1.3103,-1.3254,-1.3295,-1.3372,-1.3505,-1.3585,-1.3669,-1.3792,-1.3827,-1.3961,-1.4095,-1.4207,-1.4384,-1.4439,-1.4583,-1.4605,-1.4537,-1.4549,-1.4599,-1.4594,-1.4735,-1.4761,-1.4689,-1.469,-1.469,0,-1.2906,-1.2981,-1.314,-1.3208,-1.3281,-1.3391,-1.347,-1.3573,-1.3654,-1.3808,-1.3871,-1.401,-1.4126,-1.4339,-1.4457,-1.4595,-1.4624,-1.4664,-1.4646,-1.4619,-1.463,-1.4625,-1.4637,-1.4666,-1.4666,-1.4667,-1.4667,0,-1.2965,-1.3011,-1.3119,-1.3246,-1.3337,-1.3443,-1.3552,-1.3606,-1.3731,-1.382,-1.3955,-1.4045,-1.4226,-1.4366,-1.4517,-1.4604,-1.466,-1.4671,-1.4693,-1.4667,-1.4626,-1.4654,-1.4545,-1.4668,-1.4668,-1.4668,-1.4668,-1.4668,-1.2995,-1.3067,-1.319,-1.3311,-1.3403,-1.3504,-1.3587,-1.3681,-1.3794,-1.3945,-1.4002,-1.4143,-1.4277,-1.4485,-1.4573,-1.469,-1.4697,-1.4726,-1.4734,-1.474,-1.4739,-1.4605,-1.4718,-1.4718,-1.4719,-1.4719,-1.4719,0,-1.3061,-1.3145,-1.3254,-1.3402,-1.3499,-1.3537,-1.3661,-1.3742,-1.3862,-1.398,-1.4093,-1.4253,-1.439,-1.452,-1.4666,-1.4735,-1.4765,-1.4771,-1.4768,-1.4789,-1.4722,-1.4691,-1.4745,-1.4745,-1.4745,-1.4744,-1.4744,-1.4744,-1.3107,-1.3233,-1.3294,-1.347,-1.3556,-1.369,-1.3758,-1.3855,-1.395,-1.4123,-1.4236,-1.4317,-1.4443,-1.46,-1.4731,-1.4766,-1.4819,-1.4818,-1.4861,-1.4797,-1.4793,-1.4789,-1.476,-1.4828,-1.4828,-1.4919,-1.4919,-1.492]},{"header":{"parameterUnit":"m.s-1","parameterCategory":1,"la1":30.2991,"la2":30.254,"lo1":-89.0895,"lo2":-89.0444,"dy":0.0017,"dx":0.0017,"nx":28,"ny":28,"refTime":"2023-11-10T09:00:00:Z","depth":0,"parameterNumber":3,"parameterNumberName":"V-component_of_WINDS"},"data":[0,0,0,0,0,0,0,0,0,0,0,0,0,0,0,0,0,0,0,0,0,0,0,0,0,0,0,0,0,0,0,0,0,0,0,0,0,0,0,0,0,0,0,0,0,0,0,0,0,0,0,0,0,0,0,0,0,0,-4.8686,-4.8685,0,-4.8567,-4.8566,-4.8564,-4.8443,-4.8442,-4.844,-4.8438,-4.8306,-4.8304,-4.8302,0,0,0,0,0,0,0,0,0,0,0,0,0,-4.8801,-4.88,-4.8687,-4.8685,-4.8684,-4.8567,-4.8566,-4.8564,-4.8443,-4.8442,-4.844,-4.8438,-4.8307,-4.8304,-4.8302,0,0,0,0,0,0,0,0,0,0,0,0,0,-4.8724,-4.8799,-4.8687,-4.861,-4.8602,-4.8568,-4.8566,-4.8564,-4.8444,-4.8441,-4.8439,-4.8437,-4.8307,-4.8304,-4.8301,-4.8331,0,0,-4.8292,-4.8291,0,0,0,0,0,0,0,0,-4.8728,-4.8719,-4.8623,-4.8615,-4.8606,-4.8518,-4.8557,-4.8485,-4.8444,-4.8503,-4.8438,-4.8436,-4.8378,-4.8369,-4.8351,-4.8325,-4.8319,-4.8292,-4.829,-4.8289,-4.8288,0,0,0,0,0,0,0,-4.8734,-4.8724,-4.8639,-4.8621,-4.8611,-4.8578,-4.8564,-4.8543,-4.8455,-4.8498,-4.8489,-4.8477,-4.8373,-4.8355,-4.8347,-4.8317,-4.8292,-4.8289,-4.8287,-4.8286,-4.8307,-4.8309,0,0,0,0,0,0,-4.8752,-4.8729,-4.8643,-4.8635,-4.8663,-4.8578,-4.8563,-4.8548,-4.8455,-4.8439,-4.8479,-4.8472,-4.8361,-4.8351,-4.8342,-4.837,-4.8289,-4.8286,-4.8284,-4.8305,-4.8308,-4.831,0,0,0,0,0,0,-4.8755,-4.8746,-4.8648,-4.868,-4.8665,-4.8579,-4.8563,-4.8547,-4.8529,-4.8441,-4.8424,-4.8478,-4.8359,-4.8346,-4.8335,-4.8364,-4.8285,-4.8282,-4.8302,-4.8306,-4.8309,-4.8427,0,0,0,0,0,0,-4.8759,-4.8747,-4.876,-4.8681,-4.8664,-4.8646,-4.8565,-4.8547,-4.8525,-4.8515,-4.8435,-4.8419,-4.8356,-4.834,-4.8332,-4.8358,-4.8279,-4.8299,-4.8304,-4.8308,-4.842,-4.8434,-4.8446,0,0,0,0,0,-4.8763,-4.8796,-4.8761,-4.8751,-4.8678,-4.8648,-4.8637,-4.8567,-4.8528,-4.8539,-4.8482,-4.8422,-4.8362,-4.834,-4.833,-4.8356,-4.8297,-4.8302,-4.8308,-4.8414,-4.8431,-4.8446,0,0,0,0,0,0,-4.8876,-4.8784,-4.8745,-4.8753,-4.871,-4.8628,-4.8639,-4.8587,-4.8551,-4.8542,-4.8452,-4.8435,-4.8434,-4.8393,-4.837,-4.8378,-4.8321,-4.8325,-4.8406,-4.8421,-4.8434,-4.8443,-4.8277,0,0,0,0,0,-4.8903,-4.889,-4.8808,-4.8823,-4.8804,-4.8726,-4.871,-4.8659,-4.8609,-4.8589,-4.8531,-4.8483,-4.8452,-4.8434,-4.8402,-4.8414,-4.8393,-4.8426,-4.8439,-4.845,-4.8454,-4.8456,-4.8469,-4.8328,-4.8328,-4.8328,0,0,-4.8956,-4.8904,-4.89,-4.8845,-4.8805,-4.879,-4.8711,-4.8698,-4.8685,-4.8586,-4.8573,-4.8529,-4.8468,-4.8469,-4.8466,-4.8434,-4.8488,-4.8457,-4.8467,-4.8464,-4.8463,-4.8476,-4.8488,-4.8332,-4.8331,-4.833,0,0,-4.9047,-4.9007,-4.9015,-4.8978,-4.892,-4.8868,-4.887,-4.8796,-4.8764,-4.8751,-4.8676,-4.8657,-4.8608,-4.8568,-4.8541,-4.8617,-4.8559,-4.8608,-4.8676,-4.8679,-4.869,-4.8699,-4.8725,-4.8736,-4.8612,-4.8612,-4.8613,0,-4.9119,-4.9097,-4.9025,-4.9018,-4.8995,-4.8908,-4.8914,-4.888,-4.8814,-4.8798,-4.8765,-4.8702,-4.8654,-4.8644,-4.8663,-4.8644,-4.8642,-4.8616,-4.8695,-4.8703,-4.8711,-4.8734,-4.8745,-4.8619,-4.8618,-4.8617,-4.8617,0,-4.9189,-4.9175,-4.9188,-4.913,-4.9108,-4.9108,-4.9033,-4.9019,-4.897,-4.8921,-4.8907,-4.8847,-4.8801,-4.8795,-4.8746,-4.8777,-4.876,-4.8712,-4.8652,-4.8732,-4.8753,-4.8761,-4.8628,-4.8626,-4.8624,-4.8622,0,0,-4.9347,-4.925,-4.9256,-4.9229,-4.9159,-4.9145,-4.9139,-4.9098,-4.9087,-4.9044,-4.9036,-4.8997,-4.8952,-4.8922,-4.8867,-4.887,-4.8933,-4.8821,-4.8818,-4.8843,-4.8962,-4.8998,-4.901,-4.8895,-4.8896,-4.8898,-4.8967,0,-4.9425,-4.9414,-4.9349,-4.9355,-4.934,-4.9257,-4.9252,-4.9207,-4.9161,-4.9138,-4.9085,-4.9059,-4.9003,-4.8984,-4.8983,-4.8926,-4.8955,-4.892,-4.8883,-4.8883,-4.8901,-4.9021,-4.9059,-4.9127,-4.8974,-4.8976,-4.8977,0,-4.9514,-4.948,-4.9487,-4.9418,-4.9409,-4.9406,-4.9363,-4.9343,-4.929,-4.9255,-4.9223,-4.9162,-4.9148,-4.9094,-4.9072,-4.905,-4.903,-4.9,-4.9001,-4.8994,-4.8934,-4.9016,-4.9148,-4.9158,-4.8989,-4.8988,-4.8987,0,-4.9628,-4.9584,-4.9582,-4.9561,-4.948,-4.948,-4.9446,-4.939,-4.9369,-4.933,-4.9315,-4.9274,-4.9251,-4.9218,-4.9147,-4.9114,-4.9133,-4.9072,-4.9101,-4.9103,-4.9108,-4.9109,-4.9238,-4.9098,-4.9098,-4.9098,-4.9097,0,-4.9721,-4.9728,-4.9632,-4.9631,-4.9636,-4.9559,-4.9565,-4.9522,-4.9473,-4.946,-4.9384,-4.9372,-4.928,-4.9256,-4.92,-4.919,-4.918,-4.9149,-4.9134,-4.9156,-4.916,-4.9141,-4.9134,-4.91,-4.91,-4.9099,-4.9099,0,-4.9849,-4.9786,-4.9778,-4.9703,-4.9684,-4.9691,-4.9625,-4.9619,-4.9569,-4.9552,-4.9544,-4.9463,-4.9432,-4.9358,-4.9306,-4.9268,-4.9272,-4.9245,-4.9292,-4.9282,-4.9315,-4.9313,-4.9436,-4.9447,-4.9302,-4.9303,-4.9305,0,-4.9913,-4.9917,-4.9844,-4.9831,-4.9801,-4.9781,-4.9761,-4.9685,-4.9665,-4.9605,-4.9606,-4.9569,-4.9536,-4.9489,-4.9423,-4.9382,-4.9353,-4.9399,-4.9346,-4.9368,-4.9352,-4.9353,-4.9352,-4.9411,-4.9413,-4.9414,-4.9415,0,-5.0033,-5.0001,-4.9977,-4.9941,-4.9919,-4.9886,-4.9848,-4.9841,-4.9755,-4.9737,-4.9706,-4.9681,-4.9629,-4.9593,-4.9542,-4.9502,-4.9444,-4.9433,-4.9437,-4.9459,-4.9486,-4.9471,-4.9323,-4.943,-4.9429,-4.9428,-4.9427,-4.9426,-5.013,-5.013,-5.0079,-5.0053,-5.0017,-4.9984,-4.9975,-4.9925,-4.9899,-4.9854,-4.9809,-4.9782,-4.9726,-4.9653,-4.9617,-4.9592,-4.9563,-4.9569,-4.9571,-4.9573,-4.9583,-4.9491,-4.9583,-4.9582,-4.9582,-4.9581,-4.9581,0,-5.0245,-5.0209,-5.0186,-5.0138,-5.0117,-5.0068,-5.0023,-5.0008,-4.9987,-4.9942,-4.9912,-4.9875,-4.9839,-4.9772,-4.9729,-4.9722,-4.9694,-4.9713,-4.9713,-4.9704,-4.9612,-4.9612,-4.9737,-4.9737,-4.9737,-4.9737,-4.9737,-4.9737,-5.0303,-5.03,-5.0263,-5.024,-5.0202,-5.0178,-5.0157,-5.0125,-5.0088,-5.0053,-5.0024,-4.9981,-4.9926,-4.9879,-4.9843,-4.9823,-4.981,-4.9838,-4.981,-4.9725,-4.9711,-4.9697,-4.9696,-4.9836,-4.9837,-4.9904,-4.9904,-4.9905]}]]